Starlink 31404

operational
NORAD ID: 59521 Int'l Des: 2024-073 Owner: SPXS Country: US Constellation: starlink
LEOCIRCULAR

Starlink 31404について

説明を読み込み中...

リアルタイム位置

3D地球を読み込み中...

次回通過

高度履歴

Altitude vs Time

uPlot chart will show altitude changes over time

軌道要素

1 59521U 24073L 25259.18566660 -.00000057 00000-0 74331-5 0 9995
2 59521 42.9971 223.8509 0001207 269.8931 90.1783 15.27570240 79482
Epoch: Sep 16, 2025 • Age: 7 hours

現在のステータス

高度 483.0 km
速度 7.63 km/s
衛星直下点 21.74°N, 149.23°W
打ち上げ日 Apr 17, 2024
運用期間 1.4 years
タイプ internet

技術仕様

分類 Payload
質量 730.00 kg
乾燥質量 700.00 kg
総質量 730.00 kg
長さ 0.30 m
直径 4.10 m
スパン 29.00 m
形状 Box + pan
製造者 SPXS
バスタイプ Starlink V2M
フェーズステータス In Orbit
所有者/国 SPXS/US

大規模コンステレーション

Loading constellations...